Location: Elche
(38.2500°N, 0.7000°W)
Time: 07:19:17
(UTC+01:00)

OTV 5 (USA 277) - Visible Passes

Search period start: 23 March 2019 00:00
Search period end: 02 April 2019 01:00
Orbit: 315 x 320 km, 54.5° (Epoch: 14 March)

Date Brightness Start Highest point End Pass type
(mag) Time Alt. Az. Time Alt. Az. Time Alt. Az.
30 Mar ? 05:53:57 10° S 05:55:56 19° SE 05:57:56 10° E visible
31 Mar ? 07:07:49 10° SW 07:10:29 62° SE 07:13:10 10° NE visible
01 Apr ? 05:51:17 11° ESE 05:51:17 11° ESE 05:51:59 10° ESE visible
